RH
77 87 78 83 89 94 92 87 83 80 71 56 37 40 32 19 21 22 23 24 23 19 21 21 16 13 13 14 14 15 17 18 20 22 24 24 23 22 20 18 17 17 17
76 71 75 81 86 90 93 89 86 83 77 69 56 37 40 26 20 23 23 26 27 26 25 25 21 15 14 15 16 18 20 22 26 36 35 49 39 30 26 23 21 20 20
51 73 74 73 82 90 93 91 87 84 81 74 69 56 39 38 22 22 24 25 28 30 30 29 27 19 16 16 18 20 23 28 31 32 46 48 50 40 35 32 28 26 25
42 57 77 77 74 83 90 91 90 86 84 78 75 71 53 37 33 22 23 25 27 30 32 32 32 28 19 17 18 20 25 30 34 34 34 33 33 54 56 37 35 34 32
46 52 60 70 74 81 84 90 91 89 86 80 78 77 68 40 41 33 23 25 27 29 32 34 32 31 29 22 20 20 24 29 34 35 35 33 32 32 39 58 38 38 37
63 61 57 58 68 76 85 89 91 89 88 84 80 80 73 50 39 41 34 25 26 28 30 34 36 34 32 31 30 25 25 29 34 35 35 36 35 34 35 42 51 56 40
77 66 53 58 64 76 85 90 92 90 89 85 82 82 76 61 45 42 43 39 30 26 28 31 34 37 36 34 35 36 35 36 37 36 37 38 36 35 35 37 40 48 42
75 78 68 64 68 76 83 87 90 91 89 86 83 84 79 68 54 44 43 44 44 40 31 29 32 35 37 39 39 37 37 38 39 40 41 40 38 36 35 37 39 47 44
74 70 72 74 78 80 82 83 84 87 88 86 84 85 80 71 63 53 46 46 47 48 46 39 32 33 36 39 41 43 43 43 43 43 43 42 40 38 37 38 41 41 50
72 62 62 66 72 76 79 81 82 85 87 88 87 84 80 72 67 62 55 53 53 53 53 53 48 38 34 36 39 41 43 45 45 45 45 43 41 40 39 39 39 38 37
71 64 59 54 53 56 60 61 63 66 72 76 79 78 75 70 66 62 58 57 59 59 58 60 62 59 48 39 37 39 42 44 45 45 45 45 44 43 42 42 40 35 28
66 65 65 63 61 58 56 54 54 56 57 60 64 67 67 65 64 62 62 64 66 67 68 69 71 70 67 57 45 40 40 41 42 45 47 47 46 45 44 43 36 28 23
71 66 62 60 60 61 63 65 66 67 67 68 69 69 69 68 66 65 66 68 69 70 71 75 77 77 76 71 59 50 45 43 44 46 50 50 49 48 47 40 31 26 21
75 70 66 62 60 61 63 66 67 70 71 72 73 74 76 78 80 81 81 83 83 83 82 82 82 82 81 78 71 63 54 49 48 50 53 53 52 51 42 35 53 59 28
61 47 38 31 26 22 20 19 20 24 32 43 60 69 73 78 81 82 83 82 83 82 82 86 88 89 89 87 81 75 66 56 51 52 57 56 55 47 43 85 90 28 19
54 38 31 28 26 24 23 21 19 17 17 17 19 32 45 58 65 69 71 79 81 81 81 82 86 89 90 92 90 83 72 62 57 58 60 59 56 57 99 94 36 78 25
49 42 42 35 32 28 24 21 20 20 19 19 19 18 19 30 58 75 75 76 75 80 81 83 87 94 99 100 100 99 92 74 66 68 69 84 93 98 93 66 94 29 25
61 54 43 36 34 29 24 22 21 23 23 24 25 25 23 21 23 33 67 79 78 76 74 92 96 100 99 100 99 99 98 98 97 97 98 98 98 96 96 96 83 55 28
64 49 38 34 31 27 24 24 25 25 25 27 27 25 25 23 24 25 33 54 75 87 77 81 100 100 100 100 99 99 98 98 98 98 98 98 99 96 97 96 77 42 35
51 42 38 34 32 32 31 31 30 29 29 30 29 32 33 33 36 40 54 75 80 92 91 94 97 99 96 97 99 99 95 98 98 99 100 100 98 97 94 59 47 46 40
50 47 46 45 41 38 36 34 35 34 34 36 38 43 46 48 50 55 66 80 87 92 94 92 93 91 93 95 99 99 100 94 96 97 97 97 98 96 92 63 56 63 49
57 56 52 49 45 44 43 45 48 48 46 47 50 54 58 65 66 69 74 84 89 91 92 94 94 91 91 92 94 97 98 100 95 94 96 97 96 96 97 96 76 54 59
63 61 61 59 57 56 56 54 53 54 55 56 57 59 66 75 76 78 82 88 91 95 95 94 93 93 91 91 91 96 97 98 98 96 96 96 96 96 96 97 89 72 93
73 70 69 68 67 64 62 61 60 59 58 57 57 59 60 69 80 82 84 88 93 95 97 98 95 96 95 92 91 96 97 98 97 97 96 95 92 92 95 96 97 95 98
74 72 71 69 66 65 64 63 62 62 62 62 61 63 66 66 73 79 84 85 89 96 98 98 99 98 94 89 90 95 96 96 96 96 96 95 92 92 97 95 98 98 98
73 70 67 65 64 61 60 60 60 60 58 58 60 64 67 69 74 75 76 81 91 98 94 95 98 96 95 99 96 97 96 96 97 97 96 96 96 96 95 96 97 97 97
Wind_Speed
17 20 23 25 26 26 24 21 18 16 13 11 11 11 10 10 11 11 12 12 13 14 14 13 13 14 15 15 16 16 16 18 17 16 16 14 12 10 10 10 9 8 9
17 21 24 26 28 28 27 24 21 17 14 11 10 10 10 11 12 12 12 12 13 13 13 12 13 14 15 15 15 15 16 15 12 9 9 5 5 5 6 6 6 6 6
18 21 25 27 27 28 29 27 23 18 15 13 11 10 11 11 12 13 13 13 13 13 14 14 13 14 15 15 15 14 14 11 7 7 4 3 2 5 3 3 3 3 3
18 19 23 26 28 27 28 27 24 21 17 14 11 8 8 10 11 12 13 14 14 15 14 15 15 15 16 17 16 16 15 10 6 6 5 3 4 4 3 5 5 4 3
15 20 22 23 25 25 26 26 25 22 19 15 12 9 9 11 11 12 13 14 14 15 15 16 16 17 18 18 18 18 16 13 10 8 7 6 6 7 5 4 8 8 7
10 15 18 20 23 24 24 26 25 23 21 18 14 10 10 11 11 12 14 14 15 16 16 17 18 18 18 19 20 19 19 17 14 11 10 8 7 8 8 6 7 8 10
10 13 15 18 20 21 23 24 24 23 21 19 16 12 11 11 11 12 13 13 15 15 16 17 18 19 19 19 20 21 21 19 17 15 14 12 12 11 11 11 10 8 12
12 14 14 14 16 17 19 19 20 21 21 19 16 14 13 12 13 13 13 14 14 15 16 17 19 19 20 21 22 22 22 21 20 19 17 15 14 13 13 13 12 9 9
13 15 16 16 15 15 15 16 16 18 19 19 18 16 15 14 13 14 15 15 15 16 17 18 19 20 21 22 22 23 23 22 21 20 18 17 16 15 14 13 13 12 9
14 16 17 16 16 15 14 14 13 13 15 16 17 17 16 15 14 16 16 16 16 17 18 19 20 21 22 23 23 24 24 23 23 22 21 19 18 17 15 14 14 15 13
14 16 17 16 15 14 13 12 12 13 14 15 16 16 16 16 16 16 17 17 17 17 19 19 20 21 22 24 25 25 25 25 24 23 23 21 19 18 17 16 15 14 14
15 16 16 15 14 12 11 10 10 10 11 12 13 14 14 15 15 15 16 17 17 18 19 21 22 22 23 24 25 26 26 26 26 25 24 23 22 20 18 17 16 15 14
15 15 14 13 12 10 10 9 9 8 8 8 9 10 11 12 14 15 17 17 18 19 20 22 23 24 24 26 26 26 27 27 27 26 25 25 23 22 20 19 17 15 13
14 14 14 12 11 9 8 7 6 6 6 7 8 9 9 10 11 11 12 13 16 18 20 23 24 26 26 27 28 28 28 28 28 28 27 26 25 23 21 18 16 16 19
16 15 14 13 11 9 8 7 5 4 4 5 8 10 11 12 13 14 15 17 18 19 20 22 24 26 29 30 29 29 29 30 30 30 29 28 27 26 24 21 20 20 18
16 16 14 12 10 8 7 5 3 2 3 4 7 10 13 14 15 16 18 20 19 20 21 23 23 25 28 30 30 30 30 31 32 32 32 31 29 28 26 23 20 19 20
18 16 14 11 8 6 4 2 2 2 3 4 6 7 10 14 18 20 21 19 21 22 24 26 25 26 27 29 32 33 33 33 33 33 32 33 32 31 24 25 21 21 20
18 15 12 8 6 4 4 4 5 6 9 11 12 14 14 15 16 20 23 23 24 23 22 25 25 25 25 25 32 36 37 38 37 36 35 32 32 30 27 23 21 20 21
15 12 9 7 5 5 6 7 9 12 13 14 15 17 19 21 21 21 22 24 26 25 23 25 24 23 24 23 27 31 32 32 34 33 31 30 29 27 26 21 20 22 21
11 8 6 6 7 8 9 11 13 14 15 16 17 17 18 20 21 22 22 21 22 25 25 27 27 27 24 21 23 28 32 30 30 30 30 30 30 28 22 25 25 23 20
8 7 6 7 8 9 11 13 14 15 16 17 18 18 18 19 20 21 21 22 22 23 25 26 27 27 26 25 24 28 32 31 29 30 31 31 31 27 26 27 25 23 23
7 6 5 7 8 10 12 12 13 14 15 16 18 19 19 20 20 20 20 21 22 23 25 27 28 29 29 29 28 28 33 33 32 31 31 31 29 27 26 25 24 22 21
6 5 5 6 8 9 9 10 11 12 14 15 16 17 18 19 20 21 20 21 21 23 25 27 28 30 31 31 30 30 29 33 35 30 29 30 28 26 23 23 22 22 21
2 3 4 5 6 8 9 10 11 12 13 14 15 16 17 18 19 20 20 20 21 22 23 25 26 27 29 30 30 30 33 27 28 26 25 24 21 23 24 24 26 23 23
3 4 5 6 7 8 9 10 11 12 13 14 15 16 17 17 19 20 20 20 20 20 22 24 24 25 28 29 28 29 32 31 29 24 26 26 28 27 27 28 24 25 26
4 5 5 6 7 8 9 11 12 13 14 14 15 15 16 17 17 19 20 20 19 20 21 23 24 26 26 27 27 27 29 34 23 30 27 29 29 28 31 32 32 30 27
Wind_Direction
196 198 198 199 201 202 202 203 203 202 200 196 192 191 193 190 187 184 179 175 172 170 167 165 162 158 155 153 151 149 143 134 127 121 111 106 106 108 106 102 98 93 87
197 199 200 201 203 204 204 205 206 207 204 198 198 198 199 197 195 192 189 186 184 183 181 177 176 176 171 167 164 162 152 143 137 131 109 109 89 111 112 112 112 106 95
203 200 201 203 203 205 205 206 207 207 206 202 200 202 205 204 202 200 197 195 194 192 192 191 190 189 185 182 178 175 169 159 161 153 144 130 171 163 160 158 156 142 128
206 201 199 201 203 205 206 208 208 208 206 204 205 210 222 221 214 207 206 205 203 202 200 200 201 199 198 195 194 191 192 195 194 215 234 234 225 177 191 226 217 207 200
198 195 197 200 201 203 205 206 208 209 208 208 209 214 221 218 215 214 213 212 212 212 210 209 209 209 209 208 208 210 212 220 233 252 249 244 230 228 217 216 232 229 226
156 175 188 195 199 201 202 205 207 209 210 211 214 221 229 226 223 220 219 218 219 219 219 219 218 216 216 218 220 221 225 231 239 245 228 243 239 248 240 233 226 224 234
121 151 171 181 190 195 199 202 206 210 212 215 219 227 233 231 226 225 227 228 228 228 228 228 228 227 226 226 226 229 231 234 239 238 241 248 247 254 254 248 244 225 239
108 124 140 158 172 182 190 197 203 209 213 217 223 231 236 234 231 229 229 230 231 231 232 232 233 233 233 233 233 234 234 238 240 241 244 245 249 252 253 249 247 226 232
106 117 128 138 149 161 174 185 194 203 209 215 224 231 236 238 239 236 235 236 235 233 233 234 234 235 235 236 236 237 239 239 240 241 242 244 248 251 250 246 239 225 216
112 118 124 133 144 153 162 171 181 194 207 217 226 232 236 241 244 243 240 241 243 241 240 240 240 239 239 239 239 239 239 239 240 241 243 245 247 247 246 244 239 232 229
120 122 126 130 137 147 157 169 181 194 204 214 222 228 233 238 243 245 243 244 247 248 247 247 247 246 245 243 242 241 241 240 241 241 241 242 241 241 240 238 236 234 233
130 128 130 133 138 144 152 163 176 191 205 217 225 231 236 241 246 247 246 247 251 253 252 250 249 250 250 248 245 244 243 242 241 240 240 239 238 236 235 235 233 233 232
141 139 138 140 144 151 159 168 178 188 198 209 222 231 237 241 244 244 243 245 249 252 252 251 250 253 255 251 247 245 243 241 240 239 237 237 234 232 230 231 232 233 240
149 147 144 143 143 148 155 163 172 185 202 218 229 236 240 241 240 242 248 256 258 257 255 254 253 252 254 251 247 245 243 240 238 236 234 233 233 231 226 221 234 245 241
150 147 143 142 142 142 141 141 147 169 210 232 242 247 250 250 249 252 251 256 263 265 265 263 260 256 251 246 245 245 245 243 240 236 233 231 229 227 224 238 250 237 235
157 151 149 148 147 149 153 159 170 205 250 267 266 263 265 265 262 259 258 253 257 260 261 262 263 259 255 250 246 244 244 241 238 235 232 229 226 228 245 244 224 235 238
164 161 159 161 160 160 171 192 237 268 295 304 304 296 282 270 262 256 256 254 258 260 263 265 261 259 256 249 243 241 240 239 237 234 231 229 229 243 228 223 231 230 228
168 170 170 174 181 199 237 266 284 301 307 308 308 307 303 298 287 273 260 255 254 256 265 272 264 259 258 261 253 246 242 240 241 245 249 244 242 235 229 227 221 230 232
168 174 183 196 218 238 253 269 284 290 290 291 291 294 297 297 295 288 278 265 257 253 255 265 265 268 263 255 256 249 249 246 249 243 242 243 240 232 226 217 219 220 218
171 183 203 226 244 258 270 279 282 283 282 279 282 289 296 297 295 294 291 282 272 262 257 257 260 261 266 255 249 243 250 246 242 241 241 237 231 225 211 217 218 218 222
182 196 212 237 256 270 279 282 280 274 273 273 276 279 284 288 287 290 289 282 274 269 265 263 260 262 260 256 249 237 238 242 241 241 239 236 230 211 212 218 220 223 227
190 210 237 259 271 276 276 277 281 284 284 285 285 282 281 280 281 282 281 277 275 271 267 265 263 260 256 254 250 240 237 240 243 244 241 234 220 206 207 216 219 216 215
201 223 254 271 278 281 287 288 288 289 289 290 291 290 285 278 277 277 276 273 273 271 269 266 264 262 260 257 252 246 237 240 239 241 237 228 219 213 209 209 221 210 208
227 265 285 289 292 296 296 297 296 295 296 297 298 297 295 288 279 273 273 272 272 273 271 266 264 261 259 257 252 242 220 221 230 228 218 208 209 210 211 201 216 217 212
272 292 298 301 302 303 303 305 307 308 308 306 303 301 296 291 285 279 275 272 269 268 271 271 268 262 262 260 255 245 231 216 220 221 215 204 203 200 203 201 201 214 215
280 293 301 307 308 308 310 313 314 314 313 311 308 306 303 298 291 285 280 271 266 269 267 265 263 264 263 260 255 243 232 215 209 216 213 213 213 207 210 214 214 217 219